TimeCDT,TemperatureF,Dew PointF,Humidity,Sea Level PressureIn,VisibilityMPH,Wind Direction,Wind SpeedMPH,Gust SpeedMPH,PrecipitationIn,Events,Conditions,WindDirDegrees,DateUTC
12:15 AM,45.7,36.7,71,30.20,10.0,West,5.8,-,N/A,,Clear,260,2013-10-13 05:15:00
12:35 AM,45.5,36.9,72,30.20,10.0,West,6.9,-,N/A,,Clear,260,2013-10-13 05:35:00
12:55 AM,44.6,36.9,74,30.21,10.0,West,5.8,-,N/A,,Clear,270,2013-10-13 05:55:00
1:15 AM,43.2,37.2,80,30.22,10.0,West,4.6,-,N/A,,Clear,270,2013-10-13 06:15:00
1:35 AM,43.9,37.2,77,30.22,10.0,West,4.6,-,N/A,,Clear,260,2013-10-13 06:35:00
1:55 AM,43.2,37.4,80,30.23,10.0,West,3.5,-,N/A,,Clear,280,2013-10-13 06:55:00
2:15 AM,43.7,37.2,78,30.23,10.0,West,4.6,-,N/A,,Clear,280,2013-10-13 07:15:00
2:35 AM,43.2,37.2,80,30.24,10.0,West,4.6,-,N/A,,Clear,280,2013-10-13 07:35:00
2:55 AM,41.9,36.9,82,30.24,10.0,West,4.6,-,N/A,,Clear,280,2013-10-13 07:55:00
3:15 AM,41.9,37.0,83,30.24,10.0,WNW,4.6,-,N/A,,Clear,290,2013-10-13 08:15:00
3:35 AM,41.0,36.5,84,30.24,10.0,West,5.8,-,N/A,,Clear,280,2013-10-13 08:35:00
3:55 AM,41.2,37.0,85,30.25,10.0,West,4.6,-,N/A,,Clear,270,2013-10-13 08:55:00
4:15 AM,41.5,37.2,85,30.25,10.0,WSW,5.8,-,N/A,,Clear,250,2013-10-13 09:15:00
4:35 AM,40.6,36.9,86,30.26,10.0,WSW,4.6,-,N/A,,Clear,240,2013-10-13 09:35:00
4:55 AM,39.7,36.7,89,30.27,10.0,West,3.5,-,N/A,,Clear,260,2013-10-13 09:55:00
5:15 AM,39.6,36.5,89,30.27,10.0,WSW,5.8,-,N/A,,Clear,250,2013-10-13 10:15:00
5:35 AM,39.6,36.5,89,30.28,10.0,West,4.6,-,N/A,,Clear,260,2013-10-13 10:35:00
5:55 AM,39.0,35.8,88,30.30,10.0,West,3.5,-,N/A,,Clear,280,2013-10-13 10:55:00
6:15 AM,38.3,35.6,90,30.31,10.0,West,5.8,-,N/A,,Clear,260,2013-10-13 11:15:00
6:35 AM,39.2,36.1,89,30.31,10.0,West,5.8,-,N/A,,Clear,260,2013-10-13 11:35:00
6:55 AM,38.7,35.6,89,30.32,10.0,West,5.8,-,N/A,,Clear,260,2013-10-13 11:55:00
7:15 AM,37.9,35.4,91,30.33,10.0,WSW,5.8,-,N/A,,Clear,250,2013-10-13 12:15:00
7:35 AM,38.3,35.6,90,30.34,10.0,WSW,4.6,-,N/A,,Clear,250,2013-10-13 12:35:00
7:55 AM,38.8,35.8,89,30.35,10.0,Calm,Calm,-,N/A,,Clear,0,2013-10-13 12:55:00
8:15 AM,39.4,36.5,89,30.36,10.0,Calm,Calm,-,N/A,,Clear,0,2013-10-13 13:15:00
8:35 AM,40.8,37.6,88,30.37,10.0,Calm,Calm,-,N/A,,Clear,0,2013-10-13 13:35:00
8:55 AM,42.8,38.8,86,30.37,10.0,WNW,3.5,-,N/A,,Clear,300,2013-10-13 13:55:00
9:15 AM,44.8,39.7,82,30.38,10.0,WNW,4.6,-,N/A,,Clear,300,2013-10-13 14:15:00
9:35 AM,46.9,39.7,76,30.39,10.0,NNW,5.8,-,N/A,,Clear,340,2013-10-13 14:35:00
9:55 AM,48.7,39.7,71,30.40,10.0,North,9.2,-,N/A,,Clear,350,2013-10-13 14:55:00
10:15 AM,50.5,38.5,63,30.40,10.0,NNW,4.6,-,N/A,,Clear,330,2013-10-13 15:15:00
10:55 AM,52.3,34.7,51,30.41,10.0,North,9.2,-,N/A,,Clear,360,2013-10-13 15:55:00
11:15 AM,52.9,33.6,48,30.41,10.0,NNW,8.1,-,N/A,,Clear,330,2013-10-13 16:15:00
11:35 AM,54.5,34.5,47,30.42,10.0,NW,9.2,-,N/A,,Clear,310,2013-10-13 16:35:00
11:55 AM,54.9,33.1,44,30.42,10.0,NW,12.7,16.1,N/A,,Clear,320,2013-10-13 16:55:00
12:15 PM,55.2,33.1,43,30.41,10.0,NNW,12.7,18.4,N/A,,Clear,330,2013-10-13 17:15:00
12:35 PM,55.9,33.6,43,30.41,10.0,NW,10.4,-,N/A,,Clear,320,2013-10-13 17:35:00
12:55 PM,56.7,33.4,42,30.40,10.0,NNW,9.2,17.3,N/A,,Clear,340,2013-10-13 17:55:00
1:15 PM,57.4,33.4,40,30.39,10.0,WNW,5.8,-,N/A,,Clear,290,2013-10-13 18:15:00
1:35 PM,57.6,33.1,40,30.39,10.0,NW,10.4,-,N/A,,Clear,320,2013-10-13 18:35:00
1:55 PM,58.1,33.1,39,30.38,10.0,NNW,8.1,-,N/A,,Clear,330,2013-10-13 18:55:00
2:15 PM,57.6,32.7,39,30.38,10.0,West,5.8,-,N/A,,Clear,270,2013-10-13 19:15:00
2:35 PM,58.1,32.5,38,30.37,10.0,NW,9.2,-,N/A,,Clear,320,2013-10-13 19:35:00
2:55 PM,57.9,31.6,37,30.37,10.0,West,5.8,-,N/A,,Clear,280,2013-10-13 19:55:00
3:15 PM,58.3,32.0,37,30.36,10.0,NNW,5.8,-,N/A,,Clear,330,2013-10-13 20:15:00
3:35 PM,58.5,31.1,35,30.37,10.0,West,5.8,-,N/A,,Clear,280,2013-10-13 20:35:00
3:55 PM,58.3,30.9,35,30.37,10.0,NNW,4.6,-,N/A,,Clear,330,2013-10-13 20:55:00
4:15 PM,58.1,31.1,36,30.36,10.0,NW,3.5,-,N/A,,Clear,320,2013-10-13 21:15:00
4:35 PM,57.9,31.8,37,30.37,10.0,NW,3.5,-,N/A,,Clear,320,2013-10-13 21:35:00
4:55 PM,57.2,33.1,40,30.37,10.0,NNW,5.8,-,N/A,,Clear,330,2013-10-13 21:55:00
5:15 PM,56.8,32.4,40,30.37,10.0,WNW,4.6,-,N/A,,Clear,300,2013-10-13 22:15:00
5:35 PM,55.8,33.1,42,30.38,10.0,WNW,4.6,-,N/A,,Clear,290,2013-10-13 22:35:00
5:55 PM,54.0,33.8,46,30.38,10.0,WNW,3.5,-,N/A,,Clear,290,2013-10-13 22:55:00
6:15 PM,53.6,32.5,45,30.38,10.0,NW,3.5,-,N/A,,Clear,310,2013-10-13 23:15:00
6:35 PM,51.6,32.5,48,30.39,10.0,Calm,Calm,-,N/A,,Clear,0,2013-10-13 23:35:00
6:55 PM,49.6,32.7,52,30.39,10.0,Calm,Calm,-,N/A,,Clear,0,2013-10-13 23:55:00
7:15 PM,52.5,32.0,46,30.39,10.0,Calm,Calm,-,N/A,,Clear,0,2013-10-14 00:15:00
7:35 PM,50.4,31.8,49,30.39,10.0,Calm,Calm,-,N/A,,Clear,0,2013-10-14 00:35:00
7:55 PM,50.9,32.0,48,30.39,10.0,Calm,Calm,-,N/A,,Clear,0,2013-10-14 00:55:00
8:15 PM,49.1,32.4,53,30.39,10.0,Calm,Calm,-,N/A,,Clear,0,2013-10-14 01:15:00
8:35 PM,48.4,32.5,54,30.39,10.0,Calm,Calm,-,N/A,,Clear,0,2013-10-14 01:35:00
8:55 PM,48.7,32.2,53,30.39,10.0,Calm,Calm,-,N/A,,Clear,0,2013-10-14 01:55:00
9:15 PM,48.6,32.4,54,30.39,10.0,NNE,3.5,-,N/A,,Clear,30,2013-10-14 02:15:00
9:35 PM,48.4,32.2,54,30.39,10.0,Calm,Calm,-,N/A,,Clear,0,2013-10-14 02:35:00
9:55 PM,47.5,32.7,57,30.39,10.0,Calm,Calm,-,N/A,,Clear,0,2013-10-14 02:55:00
10:15 PM,47.5,32.9,57,30.40,10.0,Calm,Calm,-,N/A,,Clear,0,2013-10-14 03:15:00
10:35 PM,47.3,32.9,57,30.40,10.0,Calm,Calm,-,N/A,,Clear,0,2013-10-14 03:35:00
10:55 PM,48.2,32.4,54,30.40,10.0,NE,3.5,-,N/A,,Clear,40,2013-10-14 03:55:00
11:15 PM,47.3,32.9,57,30.40,10.0,ENE,3.5,-,N/A,,Clear,70,2013-10-14 04:15:00
11:35 PM,46.9,32.5,57,30.40,10.0,ENE,3.5,-,N/A,,Clear,70,2013-10-14 04:35:00
11:55 PM,46.8,32.9,59,30.40,10.0,East,3.5,-,N/A,,Clear,80,2013-10-14 04:55:00